Time,TemperatureF,DewpointF,PressureIn,WindDirection,WindDirectionDegrees,WindSpeedMPH,WindSpeedGustMPH,Humidity,HourlyPrecipIn,Conditions,Clouds,dailyrainin,SoftwareType,DateUTC
2013-07-31 00:01:00,59.9,54.1,30.10,North,-999,0.0,0.0,81,0.00,,,0.00,pywws,2013-07-31 07:01:00,
2013-07-31 00:06:00,59.9,54.1,30.09,North,-999,0.0,0.0,81,0.00,,,0.00,pywws,2013-07-31 07:06:00,
2013-07-31 00:11:00,59.9,54.1,30.09,North,-999,0.0,0.0,81,0.00,,,0.00,pywws,2013-07-31 07:11:00,
2013-07-31 00:16:00,59.7,54.2,30.09,North,-999,0.0,0.0,82,0.00,,,0.00,pywws,2013-07-31 07:16:00,
2013-07-31 00:21:00,59.7,54.2,30.09,North,-999,0.0,0.0,82,0.00,,,0.00,pywws,2013-07-31 07:21:00,
2013-07-31 00:26:00,59.7,54.2,30.10,North,-999,0.0,0.0,82,0.00,,,0.00,pywws,2013-07-31 07:26:00,
2013-07-31 00:31:00,59.7,54.5,30.09,North,-999,0.0,0.0,83,0.00,,,0.00,pywws,2013-07-31 07:31:00,
2013-07-31 00:36:00,59.5,54.4,30.09,North,-999,0.0,0.0,83,0.00,,,0.00,pywws,2013-07-31 07:36:00,
2013-07-31 00:41:00,59.7,54.5,30.10,North,-999,0.0,0.0,83,0.00,,,0.00,pywws,2013-07-31 07:41:00,
2013-07-31 00:46:00,59.7,54.5,30.09,North,-999,0.0,0.0,83,0.00,,,0.00,pywws,2013-07-31 07:46:00,
2013-07-31 00:51:00,59.7,54.5,30.09,North,-999,0.0,0.0,83,0.00,,,0.00,pywws,2013-07-31 07:51:00,
2013-07-31 00:56:00,59.7,54.5,30.09,North,-999,0.0,0.0,83,0.00,,,0.00,pywws,2013-07-31 07:56:00,
2013-07-31 01:01:00,59.5,54.4,30.10,North,-999,0.0,0.0,83,0.00,,,0.00,pywws,2013-07-31 08:01:00,
2013-07-31 01:06:00,59.5,54.4,30.10,North,-999,0.0,0.0,83,0.00,,,0.00,pywws,2013-07-31 08:06:00,
2013-07-31 01:11:00,59.0,53.8,30.10,SE,135,0.7,3.1,83,0.00,,,0.00,pywws,2013-07-31 08:11:00,
2013-07-31 01:16:00,59.0,53.8,30.10,SE,135,1.6,2.2,83,0.00,,,0.00,pywws,2013-07-31 08:16:00,
2013-07-31 01:21:00,59.0,53.8,30.10,North,-999,0.0,1.6,83,0.00,,,0.00,pywws,2013-07-31 08:21:00,
2013-07-31 01:26:00,59.0,53.8,30.10,SE,135,0.7,2.2,83,0.00,,,0.00,pywws,2013-07-31 08:26:00,
2013-07-31 01:31:00,59.0,53.8,30.10,SE,135,1.6,2.2,83,0.00,,,0.00,pywws,2013-07-31 08:31:00,
2013-07-31 01:36:00,59.0,53.8,30.10,North,-999,0.0,0.0,83,0.00,,,0.00,pywws,2013-07-31 08:36:00,
2013-07-31 01:41:00,59.0,53.8,30.10,North,-999,0.0,0.0,83,0.00,,,0.00,pywws,2013-07-31 08:41:00,
2013-07-31 01:46:00,59.0,53.8,30.10,SE,135,1.6,3.1,83,0.00,,,0.00,pywws,2013-07-31 08:46:00,
2013-07-31 01:51:00,59.0,53.8,30.10,North,-999,0.0,1.6,83,0.00,,,0.00,pywws,2013-07-31 08:51:00,
2013-07-31 01:56:00,59.0,53.8,30.10,North,-999,0.0,0.0,83,0.00,,,0.00,pywws,2013-07-31 08:56:00,
2013-07-31 02:01:00,59.0,53.8,30.10,SE,135,1.6,2.2,83,0.00,,,0.00,pywws,2013-07-31 09:01:00,
2013-07-31 02:06:00,58.8,54.0,30.10,North,-999,0.0,1.6,84,0.00,,,0.00,pywws,2013-07-31 09:06:00,
2013-07-31 02:11:00,58.8,54.0,30.10,SE,135,1.6,3.1,84,0.00,,,0.00,pywws,2013-07-31 09:11:00,
2013-07-31 02:16:00,58.8,54.0,30.10,North,-999,0.0,1.6,84,0.00,,,0.00,pywws,2013-07-31 09:16:00,
2013-07-31 02:21:00,58.8,54.0,30.10,SE,135,1.6,2.2,84,0.00,,,0.00,pywws,2013-07-31 09:21:00,
2013-07-31 02:26:00,58.6,53.8,30.10,North,-999,0.0,0.7,84,0.00,,,0.00,pywws,2013-07-31 09:26:00,
2013-07-31 02:31:00,58.5,53.6,30.10,North,-999,0.0,2.2,84,0.00,,,0.00,pywws,2013-07-31 09:31:00,
2013-07-31 02:36:00,58.6,53.8,30.10,North,-999,0.0,0.0,84,0.00,,,0.00,pywws,2013-07-31 09:36:00,
2013-07-31 02:41:00,58.6,53.8,30.10,North,-999,0.0,0.7,84,0.00,,,0.00,pywws,2013-07-31 09:41:00,
2013-07-31 02:46:00,59.0,53.8,30.10,SE,135,2.2,3.1,83,0.00,,,0.00,pywws,2013-07-31 09:46:00,
2013-07-31 02:51:00,58.6,53.8,30.10,SE,135,2.2,3.1,84,0.00,,,0.00,pywws,2013-07-31 09:51:00,
2013-07-31 02:56:00,58.3,53.5,30.10,SE,135,2.2,3.1,84,0.00,,,0.00,pywws,2013-07-31 09:56:00,
2013-07-31 03:01:00,58.3,53.5,30.10,SE,135,0.7,1.6,84,0.00,,,0.00,pywws,2013-07-31 10:01:00,
2013-07-31 03:06:00,58.3,53.5,30.10,SE,135,0.7,1.6,84,0.00,,,0.00,pywws,2013-07-31 10:06:00,
2013-07-31 03:11:00,57.7,52.9,30.10,North,-999,0.0,0.0,84,0.00,,,0.00,pywws,2013-07-31 10:11:00,
2013-07-31 03:16:00,57.7,53.3,30.10,North,-999,0.0,0.0,85,0.00,,,0.00,pywws,2013-07-31 10:16:00,
2013-07-31 03:21:00,57.7,53.3,30.10,SE,135,0.7,2.2,85,0.00,,,0.00,pywws,2013-07-31 10:21:00,
2013-07-31 03:26:00,57.7,53.3,30.11,North,-999,0.0,0.0,85,0.00,,,0.00,pywws,2013-07-31 10:26:00,
2013-07-31 03:31:00,57.9,53.4,30.10,North,-999,0.0,0.0,85,0.00,,,0.00,pywws,2013-07-31 10:31:00,
2013-07-31 03:36:00,57.7,53.3,30.10,North,-999,0.0,0.0,85,0.00,,,0.00,pywws,2013-07-31 10:36:00,
2013-07-31 03:41:00,57.7,53.3,30.10,North,-999,0.0,0.0,85,0.00,,,0.00,pywws,2013-07-31 10:41:00,
2013-07-31 03:46:00,57.6,53.1,30.10,North,-999,0.0,0.0,85,0.00,,,0.00,pywws,2013-07-31 10:46:00,
2013-07-31 03:51:00,57.6,53.1,30.10,North,-999,0.0,0.0,85,0.00,,,0.00,pywws,2013-07-31 10:51:00,
2013-07-31 04:01:00,57.4,52.9,30.10,North,-999,0.0,0.0,85,0.00,,,0.00,pywws,2013-07-31 11:01:00,
2013-07-31 04:06:00,57.2,52.7,30.10,North,-999,0.0,0.0,85,0.00,,,0.00,pywws,2013-07-31 11:06:00,
2013-07-31 04:11:00,57.2,52.7,30.11,North,-999,0.0,0.0,85,0.00,,,0.00,pywws,2013-07-31 11:11:00,
2013-07-31 04:16:00,57.2,52.7,30.10,North,-999,0.0,0.0,85,0.00,,,0.00,pywws,2013-07-31 11:16:00,
2013-07-31 04:21:00,57.2,52.7,30.10,North,-999,0.0,0.0,85,0.00,,,0.00,pywws,2013-07-31 11:21:00,
2013-07-31 04:26:00,57.2,52.7,30.10,North,-999,0.0,0.0,85,0.00,,,0.00,pywws,2013-07-31 11:26:00,
2013-07-31 04:31:00,57.2,52.7,30.10,North,-999,0.0,0.0,85,0.00,,,0.00,pywws,2013-07-31 11:31:00,
2013-07-31 04:36:00,56.8,52.7,30.10,North,-999,0.0,0.0,86,0.00,,,0.00,pywws,2013-07-31 11:36:00,
2013-07-31 04:41:00,56.8,52.7,30.10,North,-999,0.0,0.0,86,0.00,,,0.00,pywws,2013-07-31 11:41:00,
2013-07-31 04:46:00,56.8,52.7,30.10,North,-999,0.0,0.0,86,0.00,,,0.00,pywws,2013-07-31 11:46:00,
2013-07-31 04:51:00,56.8,53.0,30.10,North,-999,0.0,0.0,87,0.00,,,0.00,pywws,2013-07-31 11:51:00,
2013-07-31 05:01:00,56.7,52.8,30.10,North,-999,0.0,0.0,87,0.00,,,0.00,pywws,2013-07-31 12:01:00,
2013-07-31 05:06:00,56.8,53.0,30.10,North,-999,0.0,0.0,87,0.00,,,0.00,pywws,2013-07-31 12:06:00,
2013-07-31 05:11:00,56.7,52.8,30.10,North,-999,0.0,0.0,87,0.00,,,0.00,pywws,2013-07-31 12:11:00,
2013-07-31 05:16:00,56.7,52.8,30.09,North,-999,0.0,0.0,87,0.00,,,0.00,pywws,2013-07-31 12:16:00,
2013-07-31 05:21:00,56.5,52.7,30.10,North,-999,0.0,0.0,87,0.00,,,0.00,pywws,2013-07-31 12:21:00,
2013-07-31 05:26:00,56.5,52.7,30.10,North,-999,0.0,0.0,87,0.00,,,0.00,pywws,2013-07-31 12:26:00,
2013-07-31 05:31:00,56.1,52.3,30.10,North,-999,0.0,0.0,87,0.00,,,0.00,pywws,2013-07-31 12:31:00,
2013-07-31 05:36:00,55.9,52.1,30.10,North,-999,0.0,0.0,87,0.00,,,0.00,pywws,2013-07-31 12:36:00,
2013-07-31 05:41:00,55.6,51.8,30.10,North,-999,0.0,0.0,87,0.00,,,0.00,pywws,2013-07-31 12:41:00,
2013-07-31 05:46:00,55.4,51.6,30.11,North,-999,0.0,0.0,87,0.00,,,0.00,pywws,2013-07-31 12:46:00,
2013-07-31 05:51:00,55.6,51.8,30.11,North,-999,0.0,0.0,87,0.00,,,0.00,pywws,2013-07-31 12:51:00,
2013-07-31 05:56:00,55.4,51.6,30.10,North,-999,0.0,0.0,87,0.00,,,0.00,pywws,2013-07-31 12:56:00,
2013-07-31 06:01:00,55.4,51.6,30.10,North,-999,0.0,0.0,87,0.00,,,0.00,pywws,2013-07-31 13:01:00,
2013-07-31 06:06:00,55.4,51.6,30.10,North,-999,0.0,0.0,87,0.00,,,0.00,pywws,2013-07-31 13:06:00,
2013-07-31 06:11:00,55.6,51.8,30.10,North,-999,0.0,0.0,87,0.00,,,0.00,pywws,2013-07-31 13:11:00,
2013-07-31 06:16:00,55.8,51.9,30.10,North,-999,0.0,0.0,87,0.00,,,0.00,pywws,2013-07-31 13:16:00,
2013-07-31 06:21:00,55.9,52.1,30.10,North,-999,0.0,0.0,87,0.00,,,0.00,pywws,2013-07-31 13:21:00,
2013-07-31 06:26:00,56.1,52.3,30.11,North,-999,0.0,0.0,87,0.00,,,0.00,pywws,2013-07-31 13:26:00,
2013-07-31 06:31:00,56.3,52.5,30.10,North,-999,0.0,0.0,87,0.00,,,0.00,pywws,2013-07-31 13:31:00,
2013-07-31 06:36:00,56.5,52.7,30.11,North,-999,0.0,0.0,87,0.00,,,0.00,pywws,2013-07-31 13:36:00,
2013-07-31 06:41:00,56.7,52.8,30.11,North,-999,0.0,0.0,87,0.00,,,0.00,pywws,2013-07-31 13:41:00,
2013-07-31 06:46:00,57.0,53.2,30.10,North,-999,0.0,0.0,87,0.00,,,0.00,pywws,2013-07-31 13:46:00,
2013-07-31 06:51:00,57.2,53.0,30.11,North,-999,0.0,0.0,86,0.00,,,0.00,pywws,2013-07-31 13:51:00,
2013-07-31 07:01:00,57.4,53.2,30.11,North,-999,0.0,0.0,86,0.00,,,0.00,pywws,2013-07-31 14:01:00,
2013-07-31 07:06:00,57.6,53.4,30.11,North,-999,0.0,0.0,86,0.00,,,0.00,pywws,2013-07-31 14:06:00,
2013-07-31 07:11:00,58.1,53.9,30.11,North,-999,0.0,0.0,86,0.00,,,0.00,pywws,2013-07-31 14:11:00,
2013-07-31 07:16:00,58.5,54.3,30.11,North,-999,0.0,0.0,86,0.00,,,0.00,pywws,2013-07-31 14:16:00,
2013-07-31 07:21:00,58.8,54.3,30.11,North,-999,0.0,0.0,85,0.00,,,0.00,pywws,2013-07-31 14:21:00,
2013-07-31 07:26:00,58.8,54.3,30.11,North,-999,0.0,0.0,85,0.00,,,0.00,pywws,2013-07-31 14:26:00,
2013-07-31 07:31:00,59.2,54.3,30.11,North,-999,0.0,0.0,84,0.00,,,0.00,pywws,2013-07-31 14:31:00,
2013-07-31 07:36:00,59.0,53.8,30.11,North,-999,0.0,0.0,83,0.00,,,0.00,pywws,2013-07-31 14:36:00,
2013-07-31 07:41:00,59.0,53.8,30.11,North,-999,0.0,0.0,83,0.00,,,0.00,pywws,2013-07-31 14:41:00,
2013-07-31 07:46:00,59.2,54.0,30.11,North,-999,0.0,0.0,83,0.00,,,0.00,pywws,2013-07-31 14:46:00,
2013-07-31 07:51:00,59.2,54.0,30.11,North,-999,0.0,0.0,83,0.00,,,0.00,pywws,2013-07-31 14:51:00,
2013-07-31 08:01:00,59.2,54.0,30.11,North,-999,0.0,0.0,83,0.00,,,0.00,pywws,2013-07-31 15:01:00,
2013-07-31 08:06:00,59.4,54.2,30.11,North,-999,0.0,0.0,83,0.00,,,0.00,pywws,2013-07-31 15:06:00,
2013-07-31 08:11:00,59.4,54.2,30.12,North,-999,0.0,0.0,83,0.00,,,0.00,pywws,2013-07-31 15:11:00,
2013-07-31 08:16:00,59.5,54.4,30.11,North,-999,0.0,0.0,83,0.00,,,0.00,pywws,2013-07-31 15:16:00,
2013-07-31 08:21:00,59.5,54.4,30.11,North,-999,0.0,0.0,83,0.00,,,0.00,pywws,2013-07-31 15:21:00,
2013-07-31 08:26:00,59.9,54.4,30.11,North,-999,0.0,0.0,82,0.00,,,0.00,pywws,2013-07-31 15:26:00,
2013-07-31 08:31:00,59.9,54.4,30.11,North,-999,0.0,0.0,82,0.00,,,0.00,pywws,2013-07-31 15:31:00,
2013-07-31 08:36:00,60.1,54.2,30.11,North,-999,0.0,0.0,81,0.00,,,0.00,pywws,2013-07-31 15:36:00,
2013-07-31 08:41:00,60.3,54.4,30.11,North,-999,0.0,0.0,81,0.00,,,0.00,pywws,2013-07-31 15:41:00,
2013-07-31 08:46:00,60.6,54.8,30.11,North,-999,0.0,0.0,81,0.00,,,0.00,pywws,2013-07-31 15:46:00,
2013-07-31 08:51:00,60.6,54.4,30.11,North,-999,0.0,0.0,80,0.00,,,0.00,pywws,2013-07-31 15:51:00,
2013-07-31 09:01:00,60.6,54.4,30.11,North,-999,0.0,0.0,80,0.00,,,0.00,pywws,2013-07-31 16:01:00,
2013-07-31 09:06:00,60.6,54.1,30.11,North,-999,0.0,0.0,79,0.00,,,0.00,pywws,2013-07-31 16:06:00,
2013-07-31 09:11:00,61.2,54.2,30.11,North,-999,0.0,0.0,78,0.00,,,0.00,pywws,2013-07-31 16:11:00,
2013-07-31 09:16:00,61.5,54.6,30.10,North,-999,0.0,0.0,78,0.00,,,0.00,pywws,2013-07-31 16:16:00,
2013-07-31 09:21:00,61.5,54.6,30.10,North,-999,0.0,0.0,78,0.00,,,0.00,pywws,2013-07-31 16:21:00,
2013-07-31 09:26:00,61.7,54.4,30.11,North,-999,0.0,0.0,77,0.00,,,0.00,pywws,2013-07-31 16:26:00,
2013-07-31 09:31:00,61.3,54.1,30.11,North,-999,0.0,0.0,77,0.00,,,0.00,pywws,2013-07-31 16:31:00,
2013-07-31 09:36:00,61.2,53.9,30.11,North,-999,0.0,0.0,77,0.00,,,0.00,pywws,2013-07-31 16:36:00,
2013-07-31 09:41:00,60.8,53.5,30.10,North,-999,0.0,0.0,77,0.00,,,0.00,pywws,2013-07-31 16:41:00,
2013-07-31 09:46:00,61.2,53.9,30.11,North,-999,0.0,0.0,77,0.00,,,0.00,pywws,2013-07-31 16:46:00,
2013-07-31 09:51:00,61.2,53.9,30.11,North,-999,0.0,0.0,77,0.00,,,0.00,pywws,2013-07-31 16:51:00,
2013-07-31 10:01:00,61.2,53.9,30.10,North,-999,0.0,0.0,77,0.00,,,0.00,pywws,2013-07-31 17:01:00,
2013-07-31 10:06:00,62.2,54.9,30.09,North,-999,0.0,0.0,77,0.00,,,0.00,pywws,2013-07-31 17:06:00,
2013-07-31 10:11:00,61.7,54.4,30.09,North,-999,0.0,0.0,77,0.00,,,0.00,pywws,2013-07-31 17:11:00,
2013-07-31 10:16:00,61.9,54.6,30.09,North,-999,0.0,0.0,77,0.00,,,0.00,pywws,2013-07-31 17:16:00,
2013-07-31 10:21:00,61.9,54.6,30.09,North,-999,0.0,0.0,77,0.00,,,0.00,pywws,2013-07-31 17:21:00,
2013-07-31 10:26:00,61.9,54.2,30.09,North,-999,0.0,0.0,76,0.00,,,0.00,pywws,2013-07-31 17:26:00,
2013-07-31 10:31:00,62.6,54.6,30.09,North,-999,0.0,0.0,75,0.00,,,0.00,pywws,2013-07-31 17:31:00,
2013-07-31 10:36:00,62.8,54.7,30.09,North,-999,0.0,0.0,75,0.00,,,0.00,pywws,2013-07-31 17:36:00,
2013-07-31 10:41:00,62.6,54.6,30.09,North,-999,0.0,0.0,75,0.00,,,0.00,pywws,2013-07-31 17:41:00,
2013-07-31 10:46:00,62.1,54.0,30.09,North,-999,0.0,0.0,75,0.00,,,0.00,pywws,2013-07-31 17:46:00,
2013-07-31 10:51:00,61.9,53.9,30.09,North,-999,0.0,0.0,75,0.00,,,0.00,pywws,2013-07-31 17:51:00,
2013-07-31 11:01:00,62.6,54.6,30.09,North,-999,0.0,0.0,75,0.00,,,0.00,pywws,2013-07-31 18:01:00,
2013-07-31 11:06:00,63.3,55.3,30.08,North,-999,0.0,0.0,75,0.00,,,0.00,pywws,2013-07-31 18:06:00,
2013-07-31 11:11:00,64.8,56.6,30.08,North,-999,0.0,0.0,75,0.00,,,0.00,pywws,2013-07-31 18:11:00,
2013-07-31 11:16:00,64.9,56.4,30.07,North,-999,0.0,0.0,74,0.00,,,0.00,pywws,2013-07-31 18:16:00,
2013-07-31 11:21:00,63.7,54.9,30.07,North,-999,0.0,0.0,73,0.00,,,0.00,pywws,2013-07-31 18:21:00,
2013-07-31 11:26:00,63.1,54.7,30.08,North,-999,0.0,0.0,74,0.00,,,0.00,pywws,2013-07-31 18:26:00,
2013-07-31 11:31:00,64.2,56.1,30.08,North,-999,0.0,0.0,75,0.00,,,0.00,pywws,2013-07-31 18:31:00,
2013-07-31 11:36:00,65.7,57.5,30.07,North,-999,0.0,0.0,75,0.00,,,0.00,pywws,2013-07-31 18:36:00,
2013-07-31 11:41:00,64.6,56.1,30.07,North,-999,0.0,0.0,74,0.00,,,0.00,pywws,2013-07-31 18:41:00,
2013-07-31 11:46:00,64.2,55.8,30.07,North,-999,0.0,0.0,74,0.00,,,0.00,pywws,2013-07-31 18:46:00,
2013-07-31 11:51:00,64.6,56.5,30.07,North,-999,0.0,0.0,75,0.00,,,0.00,pywws,2013-07-31 18:51:00,
2013-07-31 12:01:00,64.2,55.4,30.07,North,-999,0.0,0.0,73,0.00,,,0.00,pywws,2013-07-31 19:01:00,
2013-07-31 12:06:00,65.3,56.8,30.07,North,-999,0.0,0.0,74,0.00,,,0.00,pywws,2013-07-31 19:06:00,
2013-07-31 12:11:00,66.0,57.5,30.07,North,-999,0.0,0.0,74,0.00,,,0.00,pywws,2013-07-31 19:11:00,
2013-07-31 12:16:00,65.7,56.8,30.06,North,-999,0.0,0.0,73,0.00,,,0.00,pywws,2013-07-31 19:16:00,
2013-07-31 12:21:00,66.9,57.6,30.06,North,-999,0.0,0.0,72,0.00,,,0.00,pywws,2013-07-31 19:21:00,
2013-07-31 12:26:00,66.6,56.9,30.06,North,-999,0.0,0.0,71,0.00,,,0.00,pywws,2013-07-31 19:26:00,
2013-07-31 12:31:00,67.1,57.4,30.06,North,-999,0.0,0.0,71,0.00,,,0.00,pywws,2013-07-31 19:31:00,
2013-07-31 12:36:00,66.9,57.2,30.06,North,-999,0.0,0.0,71,0.00,,,0.00,pywws,2013-07-31 19:36:00,
2013-07-31 12:41:00,66.7,57.0,30.06,North,-999,0.0,0.0,71,0.00,,,0.00,pywws,2013-07-31 19:41:00,
2013-07-31 12:46:00,66.4,56.7,30.06,North,-999,0.0,0.0,71,0.00,,,0.00,pywws,2013-07-31 19:46:00,
2013-07-31 12:51:00,65.7,56.4,30.06,North,-999,0.0,0.0,72,0.00,,,0.00,pywws,2013-07-31 19:51:00,
2013-07-31 13:01:00,64.8,55.5,30.06,North,-999,0.0,0.0,72,0.00,,,0.00,pywws,2013-07-31 20:01:00,
2013-07-31 13:06:00,65.5,56.6,30.06,North,-999,0.0,0.0,73,0.00,,,0.00,pywws,2013-07-31 20:06:00,
2013-07-31 13:11:00,66.9,57.6,30.06,North,-999,0.0,0.0,72,0.00,,,0.00,pywws,2013-07-31 20:11:00,
2013-07-31 13:16:00,67.3,57.9,30.06,North,-999,0.0,0.0,72,0.00,,,0.00,pywws,2013-07-31 20:16:00,
2013-07-31 13:21:00,67.1,57.4,30.06,North,-999,0.0,0.0,71,0.00,,,0.00,pywws,2013-07-31 20:21:00,
2013-07-31 13:26:00,67.1,57.0,30.06,North,-999,0.0,0.0,70,0.00,,,0.00,pywws,2013-07-31 20:26:00,
2013-07-31 13:31:00,67.6,57.5,30.06,North,-999,0.0,0.0,70,0.00,,,0.00,pywws,2013-07-31 20:31:00,
2013-07-31 13:36:00,67.3,57.2,30.05,North,-999,0.0,0.0,70,0.00,,,0.00,pywws,2013-07-31 20:36:00,
2013-07-31 13:41:00,68.7,58.1,30.05,North,-999,0.0,0.0,69,0.00,,,0.00,pywws,2013-07-31 20:41:00,
2013-07-31 13:46:00,68.4,57.4,30.06,North,-999,0.0,0.0,68,0.00,,,0.00,pywws,2013-07-31 20:46:00,
2013-07-31 13:51:00,68.2,57.2,30.05,North,-999,0.0,0.0,68,0.00,,,0.00,pywws,2013-07-31 20:51:00,
2013-07-31 14:01:00,68.5,57.6,30.06,North,-999,0.0,0.0,68,0.00,,,0.00,pywws,2013-07-31 21:01:00,
2013-07-31 14:06:00,70.3,58.9,30.05,North,-999,0.0,0.0,67,0.00,,,0.00,pywws,2013-07-31 21:06:00,
2013-07-31 14:11:00,73.0,59.7,30.04,North,-999,0.0,0.0,63,0.00,,,0.00,pywws,2013-07-31 21:11:00,
2013-07-31 14:16:00,70.7,57.9,30.04,North,-999,0.0,0.0,64,0.00,,,0.00,pywws,2013-07-31 21:16:00,
2013-07-31 14:21:00,70.9,58.1,30.04,North,-999,0.0,0.0,64,0.00,,,0.00,pywws,2013-07-31 21:21:00,
2013-07-31 14:26:00,70.7,57.9,30.04,North,-999,0.0,0.0,64,0.00,,,0.00,pywws,2013-07-31 21:26:00,
2013-07-31 14:31:00,71.1,58.3,30.04,North,-999,0.0,0.0,64,0.00,,,0.00,pywws,2013-07-31 21:31:00,
2013-07-31 14:36:00,70.5,57.7,30.04,North,-999,0.0,0.0,64,0.00,,,0.00,pywws,2013-07-31 21:36:00,
2013-07-31 14:41:00,71.6,58.3,30.04,North,-999,0.0,0.0,63,0.00,,,0.00,pywws,2013-07-31 21:41:00,
2013-07-31 14:46:00,72.0,58.7,30.03,North,-999,0.0,0.0,63,0.00,,,0.00,pywws,2013-07-31 21:46:00,
2013-07-31 14:51:00,72.3,59.0,30.03,North,-999,0.0,0.0,63,0.00,,,0.00,pywws,2013-07-31 21:51:00,
2013-07-31 15:01:00,70.0,57.2,30.04,North,-999,0.0,0.0,64,0.00,,,0.00,pywws,2013-07-31 22:01:00,
2013-07-31 15:06:00,69.6,57.7,30.04,North,-999,0.0,0.0,66,0.00,,,0.00,pywws,2013-07-31 22:06:00,
2013-07-31 15:11:00,69.8,58.3,30.04,North,-999,0.0,0.0,67,0.00,,,0.00,pywws,2013-07-31 22:11:00,
2013-07-31 15:16:00,70.2,59.1,30.03,North,-999,0.0,0.0,68,0.00,,,0.00,pywws,2013-07-31 22:16:00,
2013-07-31 15:21:00,68.7,57.7,30.03,North,-999,0.0,0.0,68,0.00,,,0.00,pywws,2013-07-31 22:21:00,
2013-07-31 15:26:00,68.9,58.3,30.03,North,-999,0.0,0.0,69,0.00,,,0.00,pywws,2013-07-31 22:26:00,
2013-07-31 15:31:00,68.9,58.3,30.03,North,-999,0.0,0.0,69,0.00,,,0.00,pywws,2013-07-31 22:31:00,
2013-07-31 15:36:00,68.9,58.3,30.03,North,-999,0.0,0.0,69,0.00,,,0.00,pywws,2013-07-31 22:36:00,
2013-07-31 15:41:00,68.4,57.8,30.04,North,-999,0.0,0.0,69,0.00,,,0.00,pywws,2013-07-31 22:41:00,
2013-07-31 15:46:00,68.4,58.2,30.04,North,-999,0.0,0.0,70,0.00,,,0.00,pywws,2013-07-31 22:46:00,
2013-07-31 15:51:00,68.5,58.4,30.03,North,-999,0.0,0.0,70,0.00,,,0.00,pywws,2013-07-31 22:51:00,
2013-07-31 16:01:00,68.0,58.2,30.03,North,-999,0.0,0.0,71,0.00,,,0.00,pywws,2013-07-31 23:01:00,
2013-07-31 16:06:00,67.6,58.7,30.03,North,-999,0.0,0.0,73,0.00,,,0.00,pywws,2013-07-31 23:06:00,
2013-07-31 16:11:00,67.3,58.3,30.03,North,-999,0.0,0.0,73,0.00,,,0.00,pywws,2013-07-31 23:11:00,
2013-07-31 16:16:00,66.7,57.8,30.04,North,-999,0.0,0.0,73,0.00,,,0.00,pywws,2013-07-31 23:16:00,
2013-07-31 16:21:00,66.6,58.0,30.05,North,-999,0.0,0.0,74,0.00,,,0.00,pywws,2013-07-31 23:21:00,
2013-07-31 16:26:00,66.2,57.7,30.05,North,-999,0.0,0.0,74,0.00,,,0.00,pywws,2013-07-31 23:26:00,
2013-07-31 16:31:00,65.8,57.7,30.05,North,-999,0.0,0.0,75,0.00,,,0.00,pywws,2013-07-31 23:31:00,
2013-07-31 16:36:00,65.5,57.7,30.05,North,-999,0.0,0.0,76,0.00,,,0.00,pywws,2013-07-31 23:36:00,
2013-07-31 16:41:00,65.5,58.1,30.04,North,-999,0.0,0.0,77,0.00,,,0.00,pywws,2013-07-31 23:41:00,
2013-07-31 16:46:00,65.3,57.9,30.04,North,-999,0.0,0.0,77,0.00,,,0.00,pywws,2013-07-31 23:46:00,
2013-07-31 16:51:00,64.8,57.4,30.04,North,-999,0.0,0.0,77,0.00,,,0.00,pywws,2013-07-31 23:51:00,
2013-07-31 17:01:00,64.9,57.9,30.03,North,-999,0.0,0.0,78,0.00,,,0.00,pywws,2013-08-01 00:01:00,
2013-07-31 17:06:00,64.2,58.3,30.01,North,-999,0.0,0.0,81,0.00,,,0.00,pywws,2013-08-01 00:06:00,
2013-07-31 17:11:00,63.7,57.7,30.04,SE,135,0.7,2.2,81,0.00,,,0.00,pywws,2013-08-01 00:11:00,
2013-07-31 17:16:00,63.5,57.9,30.04,SE,135,0.7,2.2,82,0.00,,,0.00,pywws,2013-08-01 00:16:00,
2013-07-31 17:21:00,63.7,58.1,30.04,North,-999,0.0,0.0,82,0.00,,,0.00,pywws,2013-08-01 00:21:00,
2013-07-31 17:26:00,63.5,57.9,30.03,North,-999,0.0,0.0,82,0.00,,,0.00,pywws,2013-08-01 00:26:00,
2013-07-31 17:31:00,63.5,57.9,30.03,North,-999,0.0,0.0,82,0.00,,,0.00,pywws,2013-08-01 00:31:00,
2013-07-31 17:36:00,63.3,57.7,30.02,North,-999,0.0,0.0,82,0.00,,,0.00,pywws,2013-08-01 00:36:00,
2013-07-31 17:41:00,63.1,57.6,30.03,SE,135,0.7,2.2,82,0.00,,,0.00,pywws,2013-08-01 00:41:00,
2013-07-31 17:46:00,63.3,58.1,30.03,SE,135,0.7,1.6,83,0.00,,,0.00,pywws,2013-08-01 00:46:00,
2013-07-31 17:51:00,63.1,57.9,30.03,North,-999,0.0,0.0,83,0.01,,,0.01,pywws,2013-08-01 00:51:00,
2013-07-31 18:01:00,63.1,57.9,30.03,North,-999,0.0,0.0,83,0.01,,,0.01,pywws,2013-08-01 01:01:00,
2013-07-31 18:06:00,63.1,57.9,30.03,North,-999,0.0,0.0,83,0.01,,,0.01,pywws,2013-08-01 01:06:00,
2013-07-31 18:11:00,63.1,58.2,30.03,North,-999,0.0,0.0,84,0.01,,,0.01,pywws,2013-08-01 01:11:00,
2013-07-31 18:16:00,63.0,58.0,30.01,SE,135,0.7,1.6,84,0.01,,,0.01,pywws,2013-08-01 01:16:00,
2013-07-31 18:21:00,63.0,58.0,30.01,North,-999,0.0,0.0,84,0.01,,,0.01,pywws,2013-08-01 01:21:00,
2013-07-31 18:26:00,63.3,58.1,30.02,North,-999,0.0,0.0,83,0.01,,,0.01,pywws,2013-08-01 01:26:00,
2013-07-31 18:31:00,63.3,58.1,30.01,North,-999,0.0,0.0,83,0.01,,,0.01,pywws,2013-08-01 01:31:00,
2013-07-31 18:36:00,63.1,58.2,30.00,North,-999,0.0,0.0,84,0.01,,,0.01,pywws,2013-08-01 01:36:00,
2013-07-31 18:41:00,63.0,58.0,30.00,SE,135,1.6,2.2,84,0.01,,,0.01,pywws,2013-08-01 01:41:00,
2013-07-31 18:46:00,63.1,58.2,29.99,North,-999,0.0,0.0,84,0.01,,,0.01,pywws,2013-08-01 01:46:00,
2013-07-31 18:51:00,63.1,58.2,29.99,North,-999,0.0,0.0,84,0.00,,,0.01,pywws,2013-08-01 01:51:00,
2013-07-31 19:01:00,63.7,58.8,29.98,North,-999,0.0,0.7,84,0.00,,,0.01,pywws,2013-08-01 02:01:00,
2013-07-31 19:06:00,64.4,60.1,30.00,North,-999,0.0,0.0,86,0.00,,,0.01,pywws,2013-08-01 02:06:00,
2013-07-31 19:11:00,64.4,60.1,30.00,North,-999,0.0,0.0,86,0.00,,,0.01,pywws,2013-08-01 02:11:00,
2013-07-31 19:16:00,64.9,60.3,30.00,North,-999,0.0,0.0,85,0.00,,,0.01,pywws,2013-08-01 02:16:00,
2013-07-31 19:21:00,65.5,60.8,30.00,North,-999,0.0,0.0,85,0.00,,,0.01,pywws,2013-08-01 02:21:00,
2013-07-31 19:26:00,65.5,60.8,30.00,North,-999,0.0,0.0,85,0.00,,,0.01,pywws,2013-08-01 02:26:00,
2013-07-31 19:31:00,65.7,61.0,30.00,North,-999,0.0,0.0,85,0.00,,,0.01,pywws,2013-08-01 02:31:00,
2013-07-31 19:36:00,65.1,59.8,30.00,North,-999,0.0,0.0,83,0.00,,,0.01,pywws,2013-08-01 02:36:00,
2013-07-31 19:41:00,65.5,60.2,30.00,North,-999,0.0,0.0,83,0.00,,,0.01,pywws,2013-08-01 02:41:00,
2013-07-31 19:46:00,65.1,59.5,30.01,North,-999,0.0,0.0,82,0.00,,,0.01,pywws,2013-08-01 02:46:00,
2013-07-31 19:51:00,64.8,59.5,30.00,North,-999,0.0,0.0,83,0.00,,,0.01,pywws,2013-08-01 02:51:00,
2013-07-31 20:01:00,64.9,60.0,30.00,North,-999,0.0,0.0,84,0.00,,,0.01,pywws,2013-08-01 03:01:00,
2013-07-31 20:06:00,64.6,59.6,30.00,North,-999,0.0,0.0,84,0.00,,,0.01,pywws,2013-08-01 03:06:00,
2013-07-31 20:11:00,64.6,59.6,30.00,North,-999,0.0,0.0,84,0.00,,,0.01,pywws,2013-08-01 03:11:00,
2013-07-31 20:16:00,64.8,59.8,30.00,North,-999,0.0,0.0,84,0.00,,,0.01,pywws,2013-08-01 03:16:00,
2013-07-31 20:21:00,64.6,60.0,30.00,North,-999,0.0,0.0,85,0.00,,,0.01,pywws,2013-08-01 03:21:00,
2013-07-31 20:26:00,64.4,59.8,29.99,North,-999,0.0,0.0,85,0.00,,,0.01,pywws,2013-08-01 03:26:00,
2013-07-31 20:31:00,64.4,59.8,29.99,North,-999,0.0,0.0,85,0.00,,,0.01,pywws,2013-08-01 03:31:00,
2013-07-31 20:36:00,64.2,59.3,29.99,North,-999,0.0,0.0,84,0.00,,,0.01,pywws,2013-08-01 03:36:00,
2013-07-31 20:41:00,64.0,59.1,29.99,North,-999,0.0,0.0,84,0.00,,,0.01,pywws,2013-08-01 03:41:00,
2013-07-31 20:46:00,64.0,59.1,29.99,North,-999,0.0,0.0,84,0.00,,,0.01,pywws,2013-08-01 03:46:00,
2013-07-31 20:51:00,64.0,59.1,29.99,North,-999,0.0,0.0,84,0.00,,,0.01,pywws,2013-08-01 03:51:00,
2013-07-31 20:56:00,63.9,58.9,30.00,North,-999,0.0,0.0,84,0.00,,,0.01,pywws,2013-08-01 03:56:00,
2013-07-31 21:01:00,63.9,58.9,29.99,North,-999,0.0,0.0,84,0.00,,,0.01,pywws,2013-08-01 04:01:00,
2013-07-31 21:06:00,63.9,58.9,30.00,North,-999,0.0,0.0,84,0.00,,,0.01,pywws,2013-08-01 04:06:00,
2013-07-31 21:11:00,63.3,58.4,30.00,North,-999,0.0,0.0,84,0.00,,,0.01,pywws,2013-08-01 04:11:00,
2013-07-31 21:16:00,63.1,58.2,30.00,North,-999,0.0,0.0,84,0.00,,,0.01,pywws,2013-08-01 04:16:00,
2013-07-31 21:21:00,63.1,58.2,30.00,North,-999,0.0,0.0,84,0.00,,,0.01,pywws,2013-08-01 04:21:00,
2013-07-31 21:26:00,63.1,58.2,30.00,North,-999,0.0,0.0,84,0.00,,,0.01,pywws,2013-08-01 04:26:00,
2013-07-31 21:31:00,63.1,58.2,30.00,North,-999,0.0,0.0,84,0.00,,,0.01,pywws,2013-08-01 04:31:00,
2013-07-31 21:36:00,63.0,58.0,30.00,North,-999,0.0,0.0,84,0.00,,,0.01,pywws,2013-08-01 04:36:00,
2013-07-31 21:41:00,63.0,58.0,30.00,North,-999,0.0,0.0,84,0.00,,,0.01,pywws,2013-08-01 04:41:00,
2013-07-31 21:46:00,63.0,58.0,30.00,North,-999,0.0,0.0,84,0.00,,,0.01,pywws,2013-08-01 04:46:00,
2013-07-31 21:51:00,63.1,58.2,30.00,North,-999,0.0,0.0,84,0.00,,,0.01,pywws,2013-08-01 04:51:00,
2013-07-31 21:56:00,63.0,57.7,30.00,North,-999,0.0,0.0,83,0.00,,,0.01,pywws,2013-08-01 04:56:00,
2013-07-31 22:01:00,62.8,57.5,30.00,North,-999,0.0,0.0,83,0.00,,,0.01,pywws,2013-08-01 05:01:00,
2013-07-31 22:06:00,62.6,57.7,30.01,North,-999,0.0,0.0,84,0.00,,,0.01,pywws,2013-08-01 05:06:00,
2013-07-31 22:11:00,62.6,57.7,30.00,North,-999,0.0,0.0,84,0.00,,,0.01,pywws,2013-08-01 05:11:00,
2013-07-31 22:16:00,62.4,57.8,30.01,North,-999,0.0,0.0,85,0.00,,,0.01,pywws,2013-08-01 05:16:00,
2013-07-31 22:21:00,62.1,57.5,30.01,North,-999,0.0,0.0,85,0.00,,,0.01,pywws,2013-08-01 05:21:00,
2013-07-31 22:26:00,61.9,57.3,30.01,North,-999,0.0,0.0,85,0.00,,,0.01,pywws,2013-08-01 05:26:00,
2013-07-31 22:31:00,61.9,57.6,30.01,North,-999,0.0,0.0,86,0.00,,,0.01,pywws,2013-08-01 05:31:00,
2013-07-31 22:36:00,61.7,57.5,30.01,North,-999,0.0,0.0,86,0.00,,,0.01,pywws,2013-08-01 05:36:00,
2013-07-31 22:41:00,61.5,57.3,30.01,North,-999,0.0,0.0,86,0.00,,,0.01,pywws,2013-08-01 05:41:00,
2013-07-31 22:46:00,61.5,57.3,30.01,North,-999,0.0,0.0,86,0.00,,,0.01,pywws,2013-08-01 05:46:00,
2013-07-31 22:51:00,61.3,57.1,30.01,North,-999,0.0,0.0,86,0.00,,,0.01,pywws,2013-08-01 05:51:00,
2013-07-31 23:01:00,61.3,57.1,30.01,North,-999,0.0,0.0,86,0.00,,,0.01,pywws,2013-08-01 06:01:00,
2013-07-31 23:06:00,61.3,57.1,30.01,North,-999,0.0,0.0,86,0.00,,,0.01,pywws,2013-08-01 06:06:00,
2013-07-31 23:11:00,61.3,57.1,30.02,North,-999,0.0,0.0,86,0.00,,,0.01,pywws,2013-08-01 06:11:00,
2013-07-31 23:16:00,61.3,57.1,30.02,North,-999,0.0,0.0,86,0.00,,,0.01,pywws,2013-08-01 06:16:00,
2013-07-31 23:21:00,61.3,57.1,30.02,North,-999,0.0,0.0,86,0.00,,,0.01,pywws,2013-08-01 06:21:00,
2013-07-31 23:26:00,61.2,56.9,30.02,North,-999,0.0,0.0,86,0.00,,,0.01,pywws,2013-08-01 06:26:00,
2013-07-31 23:31:00,61.2,57.3,30.02,North,-999,0.0,0.0,87,0.00,,,0.01,pywws,2013-08-01 06:31:00,
2013-07-31 23:36:00,61.0,57.1,30.02,North,-999,0.0,0.0,87,0.00,,,0.01,pywws,2013-08-01 06:36:00,
2013-07-31 23:41:00,61.0,56.8,30.02,North,-999,0.0,0.0,86,0.00,,,0.01,pywws,2013-08-01 06:41:00,
2013-07-31 23:46:00,60.6,56.7,30.03,North,-999,0.0,0.0,87,0.00,,,0.01,pywws,2013-08-01 06:46:00,
2013-07-31 23:51:00,60.8,56.6,30.03,North,-999,0.0,0.0,86,0.00,,,0.01,pywws,2013-08-01 06:51:00,
2013-07-31 23:56:00,61.0,56.8,30.03,North,-999,0.0,0.0,86,0.00,,,0.01,pywws,2013-08-01 06:56:00,